Location: Clanezzo
(45.7500°N, 9.6000°E)
Time: 03:47:12
(UTC+00:00)

H-2A R/B - Pass Details

Date: 12 May 2021
Orbit: 573 x 598 km, 98.2° (Epoch: 18 June)

Event Time Altitude Azimuth Distance (km) Brightness Sun altitude
Rises 21:17:58 0° 13° (NNE) 2,845 7.7 -20.4°
Reaches altitude 10° 21:20:09 10° 14° (NNE) 1,935 6.7 -20.5°
Maximum altitude 21:24:21 89° 103° (ESE) 596 3.3 -20.9°
Enters shadow 21:25:15 55° 193° (SSW) 715 3.5 -21.0°
